| time (UTC) | temp C | wind direction | speed KPH | gust KPH | rain 1hr cm | rain 24hr cm | rain mn cm | humidity % | barometer mb |
| 20260506153322 | 25 | 153 | 6.4 | 19.3 | 0.00 | 0.00 | 0.00 | 64 | 1015.8 |
| 20260506152317 | 25 | 147 | 8.0 | 25.7 | 0.00 | 0.00 | 0.00 | 63 | 1015.3 |
| 20260506151310 | 25 | 137 | 11.3 | 27.4 | 0.00 | 0.00 | 0.00 | 63 | 1015.8 |
| 20260506150309 | 25 | 142 | 11.3 | 19.3 | 0.00 | 0.00 | 0.00 | 63 | 1016.0 |
| 20260506145320 | 25 | 159 | 8.0 | 17.7 | 0.00 | 0.00 | 0.00 | 64 | 1016.1 |
| 20260506144319 | 24 | 177 | 9.7 | 22.5 | 0.00 | 0.00 | 0.00 | 65 | 1016.2 |
| 20260506143315 | 24 | 218 | 9.7 | 19.3 | 0.00 | 0.00 | 0.00 | 65 | 1016.2 |
| 20260506142313 | 23 | 161 | 6.4 | 19.3 | 0.00 | 0.00 | 0.00 | 66 | 1016.2 |
| 20260506141326 | 23 | 83 | 9.7 | 24.1 | 0.00 | 0.00 | 0.00 | 67 | 1016.4 |
| 20260506140324 | 23 | 213 | 4.8 | 14.5 | 0.00 | 0.00 | 0.00 | 68 | 1016.3 |
| 20260506135335 | 23 | 148 | 9.7 | 25.7 | 0.00 | 0.00 | 0.00 | 68 | 1016.4 |
| 20260506134312 | 23 | 219 | 9.7 | 19.3 | 0.00 | 0.00 | 0.00 | 69 | 1016.6 |
| 20260506133325 | 22 | 161 | 6.4 | 14.5 | 0.00 | 0.00 | 0.00 | 71 | 1016.6 |
| 20260506132316 | 22 | 145 | 6.4 | 16.1 | 0.00 | 0.00 | 0.00 | 72 | 1016.8 |
| 20260506131338 | 22 | 207 | 6.4 | 22.5 | 0.00 | 0.00 | 0.00 | 72 | 1016.7 |
| 20260506130330 | 22 | 192 | 8.0 | 14.5 | 0.00 | 0.00 | 0.00 | 72 | 1016.6 |
| 20260506125325 | 21 | 197 | 4.8 | 12.9 | 0.00 | 0.00 | 0.00 | 75 | 1016.2 |
| 20260506124342 | 21 | 175 | 4.8 | 14.5 | 0.00 | 0.00 | 0.00 | 76 | 1016.1 |
| 20260506123314 | 21 | 108 | 8.0 | 14.5 | 0.00 | 0.00 | 0.00 | 76 | 1016.3 |
| 20260506122332 | 21 | 163 | 4.8 | 17.7 | 0.00 | 0.00 | 0.00 | 76 | 1016.1 |
| 20260506121348 | 20 | 209 | 4.8 | 12.9 | 0.00 | 0.00 | 0.00 | 77 | 1016.0 |
| 20260506120317 | 20 | 231 | 8.0 | 16.1 | 0.00 | 0.00 | 0.00 | 78 | 1015.9 |
| 20260506115328 | 20 | 152 | 4.8 | 11.3 | 0.00 | 0.00 | 0.00 | 79 | 1016.0 |
| 20260506114323 | 19 | 167 | 6.4 | 16.1 | 0.00 | 0.00 | 0.00 | 80 | 1015.8 |
| 20260506113322 | 18 | 161 | 9.7 | 17.7 | 0.00 | 0.00 | 0.00 | 81 | 1015.6 |
| 20260506112316 | 18 | 174 | 6.4 | 12.9 | 0.00 | 0.00 | 0.00 | 81 | 1015.7 |
| 20260506111311 | 18 | 161 | 6.4 | 16.1 | 0.00 | 0.00 | 0.00 | 82 | 1015.7 |
| 20260506110334 | 18 | 135 | 4.8 | 14.5 | 0.00 | 0.00 | 0.00 | 82 | 1015.6 |
| 20260506105309 | 18 | 140 | 4.8 | 16.1 | 0.00 | 0.00 | 0.00 | 82 | 1015.6 |
| 20260506104311 | 18 | 112 | 6.4 | 17.7 | 0.00 | 0.00 | 0.00 | 83 | 1015.6 |
| 20260506103332 | 17 | 47 | 8.0 | 16.1 | 0.00 | 0.00 | 0.00 | 84 | 1015.4 |
| 20260506102324 | 17 | 111 | 6.4 | 14.5 | 0.00 | 0.00 | 0.00 | 85 | 1015.6 |
| 20260506101322 | 17 | 170 | 4.8 | 11.3 | 0.00 | 0.00 | 0.00 | 85 | 1015.8 |
| 20260506100345 | 17 | 212 | 3.2 | 8.0 | 0.00 | 0.00 | 0.00 | 85 | 1015.8 |
| 20260506095320 | 17 | 117 | 4.8 | 9.7 | 0.00 | 0.00 | 0.00 | 85 | 1015.9 |
| 20260506094323 | 17 | 81 | 4.8 | 9.7 | 0.00 | 0.00 | 0.00 | 85 | 1016.0 |
| 20260506093318 | 17 | 118 | 4.8 | 9.7 | 0.00 | 0.00 | 0.00 | 85 | 1016.1 |
| 20260506092312 | 17 | 185 | 6.4 | 11.3 | 0.00 | 0.00 | 0.00 | 86 | 1016.2 |
| 20260506091312 | 17 | 114 | 1.6 | 8.0 | 0.00 | 0.00 | 0.00 | 86 | 1016.1 |
| 20260506090309 | 17 | 184 | 3.2 | 6.4 | 0.00 | 0.00 | 0.00 | 86 | 1016.1 |
| 20260506085330 | 17 | 130 | 4.8 | 9.7 | 0.00 | 0.00 | 0.00 | 85 | 1015.9 |
| 20260506084310 | 17 | 148 | 3.2 | 8.0 | 0.00 | 0.00 | 0.00 | 85 | 1015.9 |
| 20260506083326 | 17 | 148 | 4.8 | 9.7 | 0.00 | 0.00 | 0.00 | 85 | 1016.0 |
| 20260506082327 | 17 | 178 | 4.8 | 11.3 | 0.00 | 0.00 | 0.00 | 85 | 1015.9 |
| 20260506081322 | 17 | 138 | 4.8 | 11.3 | 0.00 | 0.00 | 0.00 | 85 | 1015.9 |
| 20260506080316 | 17 | 185 | 4.8 | 8.0 | 0.00 | 0.00 | 0.00 | 84 | 1015.8 |
| 20260506073312 | 17 | 111 | 4.8 | 9.7 | 0.00 | 0.00 | 0.00 | 83 | 1015.9 |
| 20260506072326 | 17 | 138 | 4.8 | 11.3 | 0.00 | 0.00 | 0.00 | 83 | 1015.9 |
| 20260506071331 | 17 | 150 | 4.8 | 12.9 | 0.00 | 0.00 | 0.00 | 83 | 1015.9 |
| 20260506070323 | 17 | 153 | 4.8 | 8.0 | 0.00 | 0.00 | 0.00 | 83 | 1015.8 |
| 20260506062334 | 18 | 127 | 4.8 | 9.7 | 0.00 | 0.00 | 0.00 | 81 | 1016.2 |
| 20260506061311 | 18 | 157 | 4.8 | 12.9 | 0.00 | 0.00 | 0.00 | 81 | 1016.3 |
| 20260506060323 | 18 | 153 | 4.8 | 11.3 | 0.00 | 0.00 | 0.00 | 81 | 1016.5 |
| 20260506051317 | 18 | 150 | 4.8 | 16.1 | 0.00 | 0.00 | 0.00 | 79 | 1016.8 |
| 20260506050337 | 18 | 119 | 3.2 | 12.9 | 0.00 | 0.00 | 0.00 | 79 | 1016.9 |
| 20260506044328 | 19 | 149 | 3.2 | 14.5 | 0.00 | 0.00 | 0.00 | 78 | 1017.0 |
| 20260506043321 | 19 | 148 | 4.8 | 12.9 | 0.00 | 0.00 | 0.00 | 78 | 1017.1 |
| 20260506042321 | 19 | 147 | 4.8 | 14.5 | 0.00 | 0.00 | 0.00 | 77 | 1017.1 |
| 20260506041333 | 19 | 150 | 6.4 | 16.1 | 0.00 | 0.00 | 0.00 | 77 | 1017.1 |
| 20260506040311 | 19 | 150 | 6.4 | 16.1 | 0.00 | 0.00 | 0.00 | 77 | 1017.2 |
| 20260506035353 | 20 | 108 | 4.8 | 12.9 | 0.00 | 0.00 | 0.00 | 77 | 1017.3 |
| 20260506034326 | 20 | 162 | 6.4 | 16.1 | 0.00 | 0.00 | 0.00 | 76 | 1017.2 |
| 20260506033329 | 20 | 150 | 6.4 | 16.1 | 0.00 | 0.00 | 0.00 | 76 | 1017.2 |
| 20260506032351 | 20 | 147 | 8.0 | 17.7 | 0.00 | 0.00 | 0.00 | 76 | 1017.4 |
| 20260506031346 | 20 | 136 | 8.0 | 19.3 | 0.00 | 0.00 | 0.00 | 75 | 1017.4 |
| 20260506030329 | 20 | 136 | 8.0 | 16.1 | 0.00 | 0.00 | 0.00 | 75 | 1017.5 |
| 20260506025323 | 20 | 88 | 9.7 | 16.1 | 0.00 | 0.00 | 0.00 | 75 | 1017.5 |
| 20260506024318 | 20 | 155 | 8.0 | 16.1 | 0.00 | 0.00 | 0.00 | 74 | 1017.5 |
| 20260506023325 | 21 | 159 | 8.0 | 17.7 | 0.00 | 0.00 | 0.00 | 74 | 1017.3 |
| 20260506022341 | 21 | 101 | 6.4 | 19.3 | 0.00 | 0.00 | 0.00 | 73 | 1017.4 |
| 20260506021321 | 21 | 139 | 6.4 | 17.7 | 0.00 | 0.00 | 0.00 | 72 | 1017.3 |
| 20260506020318 | 21 | 79 | 4.8 | 19.3 | 0.00 | 0.00 | 0.00 | 71 | 1017.1 |
| 20260506015313 | 21 | 113 | 6.4 | 17.7 | 0.00 | 0.00 | 0.00 | 70 | 1017.1 |
| 20260506014314 | 21 | 159 | 6.4 | 19.3 | 0.00 | 0.00 | 0.00 | 70 | 1016.9 |
| 20260506013311 | 21 | 172 | 6.4 | 17.7 | 0.00 | 0.00 | 0.00 | 69 | 1016.8 |
| 20260506012330 | 22 | 123 | 8.0 | 17.7 | 0.00 | 0.00 | 0.00 | 69 | 1016.8 |
| 20260506011329 | 22 | 206 | 8.0 | 14.5 | 0.00 | 0.00 | 0.00 | 68 | 1016.7 |
| 20260506010331 | 22 | 133 | 9.7 | 14.5 | 0.00 | 0.00 | 0.00 | 67 | 1016.5 |
| 20260506005329 | 22 | 144 | 8.0 | 16.1 | 0.00 | 0.00 | 0.00 | 66 | 1016.3 |
| 20260506004324 | 23 | 155 | 8.0 | 16.1 | 0.00 | 0.00 | 0.00 | 66 | 1016.2 |
| 20260506003320 | 23 | 144 | 11.3 | 16.1 | 0.00 | 0.00 | 0.00 | 65 | 1016.1 |
| 20260506002343 | 23 | 114 | 9.7 | 22.5 | 0.00 | 0.00 | 0.00 | 64 | 1015.9 |
| 20260506001317 | 23 | 146 | 8.0 | 16.1 | 0.00 | 0.00 | 0.00 | 63 | 1015.9 |
| 20260506000319 | 24 | 116 | 9.7 | 19.3 | 0.00 | 0.00 | 0.00 | 62 | 1015.7 |
| 20260505235313 | 24 | 138 | 4.8 | 12.9 | 0.00 | 0.00 | 0.00 | 61 | 1015.8 |
| 20260505234334 | 25 | 182 | 8.0 | 17.7 | 0.00 | 0.00 | 0.00 | 59 | 1015.6 |
| 20260505233310 | 25 | 107 | 11.3 | 20.9 | 0.00 | 0.00 | 0.00 | 58 | 1015.5 |
| 20260505232327 | 25 | 137 | 11.3 | 20.9 | 0.00 | 0.00 | 0.00 | 57 | 1015.5 |
| 20260505231327 | 26 | 149 | 8.0 | 24.1 | 0.00 | 0.00 | 0.00 | 55 | 1015.3 |
| 20260505230329 | 26 | 182 | 8.0 | 20.9 | 0.00 | 0.00 | 0.00 | 55 | 1015.4 |
| 20260505225323 | 27 | 160 | 4.8 | 19.3 | 0.00 | 0.00 | 0.00 | 53 | 1015.5 |
| 20260505224317 | 27 | 145 | 4.8 | 20.9 | 0.00 | 0.00 | 0.00 | 53 | 1015.5 |
| 20260505223320 | 28 | 182 | 8.0 | 16.1 | 0.00 | 0.00 | 0.00 | 52 | 1015.5 |
| 20260505222338 | 28 | 150 | 8.0 | 25.7 | 0.00 | 0.00 | 0.00 | 51 | 1015.5 |
| 20260505221318 | 28 | 140 | 6.4 | 16.1 | 0.00 | 0.00 | 0.00 | 50 | 1015.7 |
| 20260505220311 | 28 | 132 | 8.0 | 19.3 | 0.00 | 0.00 | 0.00 | 52 | 1015.7 |
| 20260505215334 | 28 | 151 | 11.3 | 16.1 | 0.00 | 0.00 | 0.00 | 50 | 1015.6 |
| 20260505214310 | 28 | 122 | 11.3 | 22.5 | 0.00 | 0.00 | 0.00 | 48 | 1015.8 |
| 20260505213326 | 28 | 168 | 8.0 | 29.0 | 0.00 | 0.00 | 0.00 | 48 | 1015.7 |
| 20260505212324 | 28 | 174 | 6.4 | 20.9 | 0.00 | 0.00 | 0.00 | 48 | 1015.7 |
| 20260505211320 | 28 | 113 | 4.8 | 30.6 | 0.00 | 0.00 | 0.00 | 48 | 1015.8 |
| 20260505210316 | 28 | 126 | 6.4 | 24.1 | 0.00 | 0.00 | 0.00 | 46 | 1015.8 |
| 20260505205340 | 29 | 134 | 8.0 | 17.7 | 0.00 | 0.00 | 0.00 | 48 | 1015.8 |
| 20260505204315 | 29 | 165 | 9.7 | 24.1 | 0.00 | 0.00 | 0.00 | 48 | 1015.9 |
| 20260505203323 | 28 | 212 | 8.0 | 16.1 | 0.00 | 0.00 | 0.00 | 49 | 1015.9 |
| 20260505202314 | 29 | 135 | 9.7 | 20.9 | 0.00 | 0.00 | 0.00 | 48 | 1015.8 |
| 20260505201333 | 30 | 130 | 16.1 | 27.4 | 0.00 | 0.00 | 0.00 | 45 | 1016.0 |
| 20260505200331 | 30 | 136 | 8.0 | 20.9 | 0.00 | 0.00 | 0.00 | 46 | 1016.0 |
| 20260505195346 | 29 | 153 | 6.4 | 17.7 | 0.00 | 0.00 | 0.00 | 46 | 1016.1 |
| 20260505194320 | 29 | 139 | 9.7 | 17.7 | 0.00 | 0.00 | 0.00 | 47 | 1016.4 |
| 20260505193318 | 29 | 142 | 11.3 | 19.3 | 0.00 | 0.00 | 0.00 | 46 | 1016.7 |
| 20260505192311 | 29 | 154 | 8.0 | 22.5 | 0.00 | 0.00 | 0.00 | 47 | 1016.9 |
| 20260505191334 | 29 | 155 | 9.7 | 25.7 | 0.00 | 0.00 | 0.00 | 47 | 1016.8 |
| 20260505190328 | 28 | 150 | 8.0 | 16.1 | 0.00 | 0.00 | 0.00 | 47 | 1016.9 |
| 20260505185349 | 28 | 138 | 8.0 | 19.3 | 0.00 | 0.00 | 0.00 | 47 | 1017.2 |
| 20260505184324 | 29 | 219 | 9.7 | 17.7 | 0.00 | 0.00 | 0.00 | 48 | 1017.3 |
| 20260505183324 | 29 | 159 | 14.5 | 25.7 | 0.00 | 0.00 | 0.00 | 46 | 1017.4 |
| 20260505182318 | 28 | 141 | 8.0 | 24.1 | 0.00 | 0.00 | 0.00 | 48 | 1017.4 |
| 20260505181315 | 29 | 211 | 8.0 | 20.9 | 0.00 | 0.00 | 0.00 | 48 | 1017.5 |
| 20260505180334 | 29 | 137 | 9.7 | 17.7 | 0.00 | 0.00 | 0.00 | 48 | 1017.6 |
| 20260505175332 | 29 | 169 | 4.8 | 17.7 | 0.00 | 0.00 | 0.00 | 47 | 1017.7 |
| 20260505174327 | 29 | 178 | 4.8 | 12.9 | 0.00 | 0.00 | 0.00 | 47 | 1017.8 |
| 20260505173323 | 29 | 132 | 9.7 | 17.7 | 0.00 | 0.00 | 0.00 | 48 | 1017.8 |
| 20260505172320 | 29 | 148 | 3.2 | 12.9 | 0.00 | 0.00 | 0.00 | 49 | 1017.8 |
| 20260505171314 | 29 | 257 | 9.7 | 17.7 | 0.00 | 0.00 | 0.00 | 48 | 1017.9 |
| 20260505170335 | 28 | 153 | 6.4 | 20.9 | 0.00 | 0.00 | 0.00 | 50 | 1017.8 |
| 20260505165310 | 28 | 160 | 6.4 | 20.9 | 0.00 | 0.00 | 0.00 | 50 | 1018.1 |
| 20260505164329 | 28 | 125 | 6.4 | 19.3 | 0.00 | 0.00 | 0.00 | 49 | 1018.2 |
| 20260505163317 | 28 | 128 | 6.4 | 19.3 | 0.00 | 0.00 | 0.00 | 54 | 1018.2 |
| 20260505162309 | 27 | 131 | 11.3 | 19.3 | 0.00 | 0.00 | 0.00 | 54 | 1018.3 |
| 20260505161311 | 27 | 207 | 9.7 | 17.7 | 0.00 | 0.00 | 0.00 | 54 | 1018.5 |
| 20260505160322 | 27 | 146 | 6.4 | 17.7 | 0.00 | 0.00 | 0.00 | 52 | 1018.6 |